Date String (YYYY-MM-DD hh:mm:ss) UTC,Instrument flags,Ambient pressure (hPa),Sample flow (lpm),Bypass flow (lpm),Sample temperature (°C),Ambient temperature (°C),ASC tube jacket temperature (°C),LED temperature (°C),Box temperature (°C),Sample RH (%),Span deviation,Mass concentration (μg/m³),Mass concentration (μg/m³),Mass concentration (μg/m³)
DateTimeUTC,F1_M11,P_M11,Q1_M11,Q2_M11,T1_M11,T2_M11,T3_M11,T4_M11,T5_M11,U1_M11,ZSPAN_M11,X0_M11,X2_M11,X1_M11
2023-01-01 22:00:00,,0818.4,5.00,0.00,25.4,24.0,00.0,34.2,27.1,13.3,-001.7,0020.57,0017.21,0016.85
2023-01-01 22:01:00,,0818.4,5.00,0.00,25.4,24.0,00.0,34.2,27.1,13.3,-001.5,0020.57,0017.19,0016.85
2023-01-01 22:02:00,,0818.4,5.00,0.00,25.4,23.9,00.0,34.2,27.0,13.3,-001.2,0020.65,0017.17,0016.82
2023-01-01 22:03:00,,0818.4,5.00,0.00,25.3,23.9,00.0,34.2,27.0,13.3,-001.3,0020.66,0017.14,0016.77
2023-01-01 22:04:00,,0818.4,5.00,0.00,25.3,23.9,00.0,34.2,27.0,13.3,-001.4,0020.60,0017.05,0016.70
2023-01-01 22:05:00,,0818.4,5.01,0.00,25.3,23.9,00.0,34.2,27.0,13.4,-001.2,0020.44,0016.94,0016.58
2023-01-01 22:06:00,,0818.4,5.01,0.00,25.3,23.9,00.0,34.2,27.0,13.4,-001.4,0020.44,0016.79,0016.40
2023-01-01 22:07:00,,0818.4,4.99,0.00,25.3,23.8,00.0,34.2,27.0,13.4,-001.4,0020.53,0016.71,0016.30
2023-01-01 22:08:00,,0818.4,4.99,0.00,25.3,23.8,00.0,34.1,27.0,13.4,-001.3,0020.31,0016.58,0016.18
2023-01-01 22:09:00,,0818.4,5.01,0.00,25.3,23.8,00.0,34.1,27.0,13.5,-001.2,0020.13,0016.43,0016.03
2023-01-01 22:10:00,,0818.4,5.00,0.00,25.3,23.8,00.0,34.1,27.0,13.5,-001.1,0019.87,0016.23,0015.87
2023-01-01 22:11:00,,0818.4,5.00,0.00,25.3,23.8,00.0,34.1,27.0,13.5,-000.8,0020.23,0016.03,0015.68
2023-01-01 22:12:00,,0818.4,5.01,0.00,25.3,23.8,00.0,34.1,27.0,13.5,-000.9,0020.75,0015.90,0015.51
2023-01-01 22:13:00,,0818.4,5.01,0.00,25.3,23.8,00.0,34.1,27.0,13.5,-001.1,0020.69,0015.73,0015.31
2023-01-01 22:14:00,,0818.4,5.01,0.00,25.3,23.7,00.0,34.1,27.0,13.5,-000.8,0020.47,0015.57,0015.13
2023-01-01 22:15:00,,0818.4,5.01,0.00,25.2,23.7,00.0,34.1,27.0,13.5,-001.1,0020.29,0015.46,0015.03
2023-01-01 22:16:00,,0818.4,5.01,0.00,25.2,23.7,00.0,34.1,27.0,13.5,-001.3,0020.26,0015.40,0014.95
2023-01-01 22:17:00,,0818.5,5.00,0.00,25.2,23.7,00.0,34.1,27.0,13.5,-000.9,0020.35,0015.32,0014.90
2023-01-01 22:18:00,,0818.6,4.99,0.00,25.2,23.7,00.0,34.1,27.0,13.6,-000.7,0020.08,0015.18,0014.80
2023-01-01 22:19:00,,0818.7,5.00,0.00,25.2,23.7,00.0,34.1,27.0,13.6,-001.1,0020.06,0015.11,0014.71
2023-01-01 22:20:00,,0818.8,5.00,0.00,25.2,23.7,00.0,34.1,27.0,13.6,-001.0,0020.10,0014.99,0014.59
2023-01-01 22:21:00,,0818.8,5.00,0.00,25.2,23.7,00.0,34.1,27.0,13.6,-000.8,0020.05,0014.88,0014.47
2023-01-01 22:22:00,,0818.8,5.00,0.00,25.2,23.7,00.0,34.1,27.0,13.6,-000.9,0019.48,0014.76,0014.37
2023-01-01 22:23:00,,0818.7,5.00,0.00,25.2,23.7,00.0,34.1,27.0,13.6,-001.0,0018.49,0014.57,0014.23
2023-01-01 22:24:00,,0818.8,5.00,0.00,25.2,23.8,00.0,34.1,27.0,13.6,-001.0,0018.32,0014.40,0014.10
2023-01-01 22:25:00,,0818.7,5.01,0.00,25.2,23.8,00.0,34.1,27.0,13.6,-001.2,0018.17,0014.28,0013.99
2023-01-01 22:26:00,,0818.8,5.00,0.00,25.2,23.8,00.0,34.1,27.0,13.7,-001.1,0018.02,0014.15,0013.86
2023-01-01 22:27:00,,0818.7,5.00,0.00,25.2,23.8,00.0,34.1,27.0,13.7,-001.0,0017.84,0014.01,0013.74
2023-01-01 22:28:00,,0818.7,5.00,0.00,25.2,23.8,00.0,34.1,27.0,13.8,-001.3,0017.43,0013.89,0013.63
2023-01-01 22:29:00,,0818.8,5.00,0.00,25.2,23.8,00.0,34.1,27.0,13.8,-001.5,0017.17,0013.80,0013.55
2023-01-01 22:30:00,,0818.8,4.99,0.00,25.2,23.8,00.0,34.1,27.0,13.8,-001.3,0017.06,0013.72,0013.47
2023-01-01 22:31:00,,0818.8,5.00,0.00,25.2,23.8,00.0,34.1,27.0,13.8,-001.2,0016.73,0013.63,0013.39
2023-01-01 22:32:00,,0818.8,5.00,0.00,25.2,23.8,00.0,34.1,27.0,13.8,-001.1,0016.55,0013.56,0013.34
2023-01-01 22:33:00,,0818.8,5.00,0.00,25.2,23.7,00.0,34.1,27.0,13.9,-001.1,0016.42,0013.51,0013.29
2023-01-01 22:34:00,,0818.8,5.00,0.00,25.2,23.7,00.0,34.1,27.0,13.9,-000.9,0016.34,0013.45,0013.22
2023-01-01 22:35:00,,0818.8,5.01,0.00,25.2,23.7,00.0,34.1,27.1,13.9,-000.2,0016.05,0013.37,0013.15
2023-01-01 22:36:00,,0818.9,5.00,0.00,25.2,23.7,00.0,34.0,27.0,14.0,-000.0,0015.91,0013.29,0013.09
2023-01-01 22:37:00,,0818.9,5.00,0.00,25.2,23.7,00.0,34.0,27.0,14.0,-000.2,0015.86,0013.22,0013.01
2023-01-01 22:38:00,,0818.9,5.00,0.00,25.2,23.7,00.0,34.0,27.0,14.0,-000.2,0015.75,0013.12,0012.90
2023-01-01 22:39:00,,0818.9,5.00,0.00,25.2,23.7,00.0,34.0,27.0,14.0,-000.1,0015.64,0013.00,0012.77
2023-01-01 22:40:00,,0819.0,5.01,0.00,25.2,23.7,00.0,34.0,27.0,14.1,0000.2,0015.55,0012.90,0012.66
2023-01-01 22:41:00,,0819.0,5.01,0.00,25.2,23.7,00.0,34.0,27.0,14.1,0000.1,0015.50,0012.80,0012.55
2023-01-01 22:42:00,,0819.0,5.02,0.00,25.1,23.6,00.0,34.0,27.0,14.2,-000.3,0015.37,0012.67,0012.42
2023-01-01 22:43:00,,0819.0,5.00,0.00,25.1,23.6,00.0,34.0,26.9,14.2,-000.5,0015.18,0012.53,0012.30
2023-01-01 22:44:00,,0819.0,4.99,0.00,25.1,23.5,00.0,34.0,26.8,14.3,-000.4,0015.06,0012.42,0012.19
2023-01-01 22:45:00,,0819.0,5.00,0.00,25.0,23.4,00.0,34.0,26.8,14.3,-000.6,0014.94,0012.33,0012.07
2023-01-01 22:46:00,,0819.0,5.00,0.00,25.0,23.3,00.0,34.0,26.8,14.4,-001.2,0014.84,0012.23,0011.98
2023-01-01 22:47:00,,0818.9,5.00,0.00,25.0,23.2,00.0,33.9,26.7,14.4,-001.4,0014.80,0012.18,0011.92
2023-01-01 22:48:00,,0819.0,5.01,0.00,24.9,23.1,00.0,33.9,26.7,14.4,-001.2,0014.71,0012.14,0011.89
2023-01-01 22:49:00,,0819.0,5.00,0.00,24.9,23.0,00.0,33.9,26.6,14.4,-001.4,0014.67,0012.13,0011.89
2023-01-01 22:50:00,,0818.9,5.00,0.00,24.8,22.9,00.0,33.9,26.6,14.5,-001.6,0014.65,0012.15,0011.92
2023-01-01 22:51:00,,0819.0,5.03,0.00,24.8,22.9,00.0,33.8,26.5,14.5,-001.8,0014.72,0012.19,0011.95
2023-01-01 22:52:00,,0819.1,5.01,0.00,24.8,22.8,00.0,33.8,26.5,14.5,-001.9,0014.76,0012.24,0012.00
2023-01-01 22:53:00,,0819.2,5.00,0.00,24.7,22.8,00.0,33.8,26.5,14.6,-002.0,0014.89,0012.32,0012.07
2023-01-01 22:54:00,,0819.1,4.99,0.00,24.7,22.8,00.0,33.7,26.4,14.7,-002.3,0015.45,0012.40,0012.14
2023-01-01 22:55:00,,0819.2,5.00,0.00,24.7,22.7,00.0,33.7,26.4,14.8,-002.5,0015.63,0012.49,0012.23
2023-01-01 22:56:00,,0819.1,4.98,0.00,24.6,22.7,00.0,33.7,26.4,14.8,-002.4,0015.71,0012.57,0012.32
2023-01-01 22:57:00,,0819.2,4.99,0.00,24.6,22.6,00.0,33.7,26.3,14.9,-002.2,0015.86,0012.68,0012.44
2023-01-01 22:58:00,,0819.3,4.99,0.00,24.5,22.6,00.0,33.6,26.3,15.0,-002.1,0016.01,0012.78,0012.54
2023-01-01 22:59:00,,0819.3,4.99,0.00,24.5,22.6,00.0,33.6,26.3,15.0,-001.9,0016.13,0012.87,0012.61
